This demonstration page uses our WeatherBlox Daily Observations layout. Learn more.

Left ArrowRight Arrow

44.8408, -93.29828

Hourly Observations for March 7, 2018

Temp ( °F °C ) Dew Point ( °F °C ) Humidity (%) Winds ( mph kmh ) Pressure ( in mb ) Visibility ( mi km ) Precip ( " mm )
12:53 am 00:53 Clear 23 -5 15 -9.4 72 72 N 10 17 30.07 1018 10 16 0.00 0.00
1:53 am 01:53 Clear 21 -6.1 16 -8.9 81 81 N 10 17 30.09 1019 10 16 0.00 0.00
2:53 am 02:53 Clear 18 -7.8 16 -8.9 92 92 NNE 6 9 30.09 1019 10 16 0.00 0.00
3:53 am 03:53 Clear 16 -8.9 14 -10 92 92 N 5 7 30.08 1019 10 16 0.00 0.00
4:40 am 04:40 Mostly Clear 13 -10.6 13 -10.6 100 100 WNW 5 7 30.09 1019 8 13 0.00 0.00
4:53 am 04:53 Partly Cloudy 14 -10 13 -10.6 95 95 N 3 6 30.09 1019 9 14 0.00 0.00
4:56 am 04:56 Mostly Cloudy 14 -10 13 -10.6 95 95 NNW 3 6 30.12 1020 9 14 0.00 0.00
5:53 am 05:53 Mostly Cloudy with Mist and Fog 13 -10.6 12 -11.1 96 96 NNW 5 7 30.10 1019 2 2 0.00 0.00
6:00 am 06:00 Mostly Cloudy with Mist and Fog 13 -10.6 13 -10.6 100 100 NNW 3 6 30.12 1020 0 0 0.00 0.00
6:16 am 06:16 Mostly Cloudy with Mist and Fog 13 -10.6 13 -10.6 100 100 NW 5 7 30.12 1020 1 1 0.00 0.00
6:38 am 06:38 Cloudy with Mist and Fog 13 -10.6 12 -11.1 96 96 WNW 3 6 30.12 1020 2 3 0.00 0.00
6:53 am 06:53 Cloudy with Freezing Fog 13 -10.6 12 -11.1 96 96 NNW 5 7 30.11 1020 0 0 0.00 0.00
7:07 am 07:07 Mostly Cloudy 14 -10 13 -10.6 95 95 Calm 30.12 1020 7 11 0.00 0.00
7:29 am 07:29 Mostly Cloudy with Patchy Fog 14 -10 12 -11.1 92 92 NW 7 11 30.12 1020 8 13 0.00 0.00
7:41 am 07:41 Mostly Cloudy 14 -10 13 -10.6 95 95 NNW 8 13 30.12 1020 8 13 0.00 0.00
7:53 am 07:53 Mostly Cloudy 15 -9.4 13 -10.6 91 91 NNW 8 13 30.12 1020 10 16 0.00 0.00
8:07 am 08:07 Mostly Cloudy 16 -8.9 14 -10 92 92 NNW 6 9 30.12 1020 8 13 0.00 0.00
8:53 am 08:53 Partly Cloudy 18 -7.8 14 -10 84 84 N 6 9 30.12 1020 10 16 0.00 0.00
9:53 am 09:53 Partly Cloudy 20 -6.7 12 -11.1 71 71 N 8 13 30.11 1020 10 16 0.00 0.00
10:53 am 10:53 Partly Cloudy 23 -5 11 -11.7 60 60 N 8 13 30.11 1020 10 16 0.00 0.00
11:53 am 11:53 Mostly Sunny 25 -3.9 12 -11.1 58 58 NW 13 20 30.10 1019 10 16 0.00 0.00
12:53 pm 12:53 Mostly Sunny 26 -3.3 12 -11.1 55 55 N 14 22 30.08 1019 10 16 0.00 0.00
1:53 pm 13:53 Mostly Sunny 28 -2.2 13 -10.6 53 53 NNW 13 20 30.08 1019 10 16 0.00 0.00
2:53 pm 14:53 Mostly Sunny 28 -2.2 13 -10.6 53 53 NNW 13 20 30.07 1018 10 16 0.00 0.00
3:53 pm 15:53 Mostly Sunny 28 -2.2 13 -10.6 53 53 WNW 12 19 30.08 1019 10 16 0.00 0.00
4:53 pm 16:53 Mostly Sunny 27 -2.8 11 -11.7 51 51 NW 12 19 30.09 1019 10 16 0.00 0.00
5:53 pm 17:53 Mostly Sunny 26 -3.3 11 -11.7 53 53 NNW 8 13 30.11 1020 10 16 0.00 0.00
6:53 pm 18:53 Clear 24 -4.4 11 -11.7 57 57 NW 9 15 30.12 1020 10 16 0.00 0.00
7:53 pm 19:53 Mostly Clear 23 -5 12 -11.1 63 63 NW 5 7 30.13 1020 10 16 0.00 0.00
8:53 pm 20:53 Partly Cloudy 23 -5 11 -11.7 60 60 Calm 30.14 1021 10 16 0.00 0.00
9:53 pm 21:53 Partly Cloudy 22 -5.6 12 -11.1 66 66 NW 3 6 30.14 1021 10 16 0.00 0.00
10:53 pm 22:53 Clear 20 -6.7 12 -11.1 71 71 W 5 7 30.14 1021 10 16 0.00 0.00
11:53 pm 23:53 Clear 19 -7.2 12 -11.1 74 74 NW 5 7 30.14 1021 9 14 0.00 0.00

Powered by AerisWeather